• In Uzbekistan
  • List of Countries
  • For 7 days
  • Water Temperature
  • Satellite Maps
  • Weather Map
  • Weather Widgets
  • user-avatar
    Login

    Hourly Weather Chavantes

    Today, 21 February, Wednesday

    Time Temperature Precipitation Wind Pressure Humidity
    00:00 +23°C° 0 mm 2 mps 711 mmHg 98%
    01:00 +23°C° 0 mm 2 mps 711 mmHg 98%
    02:00 +21°C° 0 mm 2 mps 711 mmHg 98%
    03:00 +21°C° 0 mm 2 mps 711 mmHg 98%
    04:00 +21°C° 0.1 mm 2 mps 711 mmHg 98%
    05:00 +21°C° 0.1 mm 2 mps 711 mmHg 98%
    06:00 +21°C° 0.1 mm 2 mps 711 mmHg 98%
    07:00 +23°C° 0 mm 2 mps 712 mmHg 95%
    08:00 +24°C° 0 mm 2 mps 712 mmHg 92%
    09:00 +24°C° 0 mm 3 mps 712 mmHg 89%
    10:00 +25°C° 0 mm 3 mps 712 mmHg 84%
    11:00 +27°C° 0 mm 3 mps 712 mmHg 79%
    12:00 +28°C° 0 mm 3 mps 712 mmHg 74%
    13:00 +28°C° 0.1 mm 3 mps 712 mmHg 71%
    14:00 +29°C° 0.1 mm 3 mps 711 mmHg 68%
    15:00 +30°C° 0.1 mm 3 mps 710 mmHg 65%
    16:00 +29°C° 0.1 mm 3 mps 710 mmHg 69%
    17:00 +29°C° 0.1 mm 2 mps 709 mmHg 74%
    18:00 +28°C° 0.1 mm 2 mps 709 mmHg 78%
    19:00 +27°C° 0 mm 1 mps 709 mmHg 82%
    20:00 +25°C° 0 mm 1 mps 710 mmHg 86%
    21:00 +24°C° 0 mm 1 mps 710 mmHg 90%
    22:00 +24°C° 0 mm 1 mps 711 mmHg 91%
    23:00 +23°C° 0 mm 1 mps 711 mmHg 92%

    Tomorrow, 22 February, Thursday

    Time Temperature Precipitation Wind Pressure Humidity
    00:00 +23°C° 0 mm 1 mps 711 mmHg 93%
    01:00 +22°C° 0 mm 1 mps 711 mmHg 94%
    02:00 +22°C° 0 mm 1 mps 711 mmHg 94%
    03:00 +22°C° 0 mm 1 mps 710 mmHg 95%
    04:00 +21°C° 0 mm 1 mps 710 mmHg 95%
    05:00 +21°C° 0 mm 1 mps 711 mmHg 95%
    06:00 +21°C° 0 mm 1 mps 711 mmHg 95%
    07:00 +22°C° 0 mm 1 mps 711 mmHg 90%
    08:00 +24°C° 0 mm 1 mps 712 mmHg 85%
    09:00 +26°C° 0 mm 1 mps 713 mmHg 80%
    10:00 +27°C° 0.1 mm 1 mps 713 mmHg 74%
    11:00 +29°C° 0.1 mm 1 mps 713 mmHg 67%
    12:00 +31°C° 0.1 mm 1 mps 713 mmHg 61%
    13:00 +31°C° 0.1 mm 1 mps 712 mmHg 59%
    14:00 +31°C° 0.1 mm 2 mps 712 mmHg 57%
    15:00 +31°C° 0.1 mm 2 mps 711 mmHg 55%
    16:00 +31°C° 0 mm 2 mps 711 mmHg 60%
    17:00 +30°C° 0 mm 2 mps 710 mmHg 65%
    18:00 +29°C° 0 mm 2 mps 710 mmHg 70%
    19:00 +27°C° 0 mm 2 mps 711 mmHg 72%
    20:00 +25°C° 0 mm 1 mps 711 mmHg 74%
    21:00 +23°C° 0 mm 1 mps 711 mmHg 76%
    22:00 +23°C° 0 mm 2 mps 712 mmHg 79%
    23:00 +21°C° 0 mm 2 mps 712 mmHg 81%

    Day after tomorrow, 23 February, Friday

    Time Temperature Precipitation Wind Pressure Humidity
    00:00 +20°C° 0 mm 3 mps 712 mmHg 84%
    01:00 +20°C° 0 mm 3 mps 712 mmHg 85%
    02:00 +20°C° 0 mm 3 mps 712 mmHg 86%
    03:00 +20°C° 0 mm 3 mps 712 mmHg 88%
    04:00 +19°C° 0 mm 4 mps 712 mmHg 88%
    05:00 +19°C° 0 mm 4 mps 712 mmHg 89%
    06:00 +19°C° 0 mm 4 mps 712 mmHg 90%
    07:00 +20°C° 0 mm 4 mps 713 mmHg 85%
    08:00 +22°C° 0 mm 5 mps 713 mmHg 80%
    09:00 +23°C° 0 mm 5 mps 714 mmHg 75%
    10:00 +26°C° 0 mm 5 mps 714 mmHg 70%
    11:00 +27°C° 0 mm 4 mps 714 mmHg 66%
    12:00 +29°C° 0 mm 4 mps 714 mmHg 61%
    13:00 +30°C° 0 mm 4 mps 714 mmHg 59%
    14:00 +30°C° 0 mm 4 mps 713 mmHg 58%
    15:00 +31°C° 0 mm 3 mps 713 mmHg 57%
    16:00 +30°C° 0 mm 3 mps 712 mmHg 62%
    17:00 +29°C° 0 mm 3 mps 712 mmHg 67%
    18:00 +28°C° 0 mm 3 mps 712 mmHg 72%
    19:00 +27°C° 0 mm 4 mps 713 mmHg 74%
    20:00 +25°C° 0 mm 4 mps 713 mmHg 76%
    21:00 +23°C° 0 mm 5 mps 714 mmHg 78%
    22:00 +22°C° 0 mm 5 mps 714 mmHg 80%
    23:00 +21°C° 0 mm 5 mps 714 mmHg 81%

    24 February, Saturday

    Time Temperature Precipitation Wind Pressure Humidity
    00:00 +20°C° 0 mm 5 mps 714 mmHg 82%
    01:00 +20°C° 0 mm 5 mps 714 mmHg 85%
    02:00 +19°C° 0 mm 4 mps 714 mmHg 87%
    03:00 +19°C° 0 mm 4 mps 713 mmHg 89%
    04:00 +19°C° 0 mm 4 mps 713 mmHg 90%
    05:00 +19°C° 0 mm 4 mps 714 mmHg 90%
    06:00 +18°C° 0 mm 4 mps 714 mmHg 91%
    07:00 +20°C° 0 mm 4 mps 714 mmHg 86%
    08:00 +21°C° 0 mm 5 mps 715 mmHg 81%
    09:00 +23°C° 0 mm 5 mps 716 mmHg 77%
    10:00 +25°C° 0 mm 5 mps 715 mmHg 72%
    11:00 +27°C° 0 mm 5 mps 715 mmHg 67%
    12:00 +28°C° 0 mm 5 mps 715 mmHg 63%
    13:00 +29°C° 0 mm 5 mps 715 mmHg 61%
    14:00 +29°C° 0 mm 4 mps 714 mmHg 60%
    15:00 +30°C° 0 mm 4 mps 714 mmHg 58%
    16:00 +29°C° 0 mm 4 mps 714 mmHg 63%
    17:00 +28°C° 0 mm 4 mps 713 mmHg 67%
    18:00 +27°C° 0 mm 3 mps 713 mmHg 72%
    19:00 +26°C° 0 mm 4 mps 714 mmHg 72%
    20:00 +25°C° 0 mm 5 mps 714 mmHg 71%
    21:00 +22°C° 0 mm 5 mps 715 mmHg 71%
    22:00 +21°C° 0 mm 5 mps 715 mmHg 74%
    23:00 +21°C° 0 mm 5 mps 715 mmHg 77%

    25 February, Sunday

    Time Temperature Precipitation Wind Pressure Humidity
    00:00 +20°C° 0 mm 4 mps 715 mmHg 80%
    01:00 +19°C° 0 mm 4 mps 715 mmHg 82%
    02:00 +19°C° 0 mm 4 mps 714 mmHg 84%
    03:00 +19°C° 0 mm 4 mps 714 mmHg 86%
    04:00 +19°C° 0 mm 4 mps 714 mmHg 87%
    05:00 +19°C° 0 mm 4 mps 715 mmHg 88%
    06:00 +18°C° 0 mm 4 mps 715 mmHg 89%
    07:00 +20°C° 0 mm 4 mps 715 mmHg 85%
    08:00 +21°C° 0 mm 5 mps 716 mmHg 81%
    09:00 +23°C° 0 mm 5 mps 716 mmHg 77%
    10:00 +25°C° 0 mm 5 mps 716 mmHg 72%
    11:00 +27°C° 0 mm 4 mps 716 mmHg 67%
    12:00 +29°C° 0 mm 4 mps 716 mmHg 63%
    13:00 +29°C° 0.2 mm 4 mps 715 mmHg 63%
    14:00 +29°C° 0.2 mm 4 mps 715 mmHg 63%
    15:00 +29°C° 0.2 mm 4 mps 714 mmHg 63%
    16:00 +28°C° 0.2 mm 4 mps 714 mmHg 68%
    17:00 +27°C° 0.2 mm 3 mps 713 mmHg 72%
    18:00 +26°C° 0.2 mm 3 mps 713 mmHg 77%
    19:00 +25°C° 0 mm 4 mps 714 mmHg 79%
    20:00 +23°C° 0 mm 4 mps 714 mmHg 80%
    21:00 +22°C° 0 mm 5 mps 714 mmHg 82%
    22:00 +21°C° 0 mm 5 mps 715 mmHg 83%
    23:00 +21°C° 0 mm 5 mps 715 mmHg 84%

    26 February, Monday

    Time Temperature Precipitation Wind Pressure Humidity
    00:00 +20°C° 0 mm 4 mps 715 mmHg 86%
    01:00 +20°C° 0 mm 4 mps 714 mmHg 85%
    02:00 +20°C° 0 mm 4 mps 714 mmHg 84%
    03:00 +20°C° 0 mm 4 mps 714 mmHg 83%
    04:00 +20°C° 0 mm 4 mps 714 mmHg 84%
    05:00 +20°C° 0 mm 4 mps 714 mmHg 84%
    06:00 +20°C° 0 mm 4 mps 714 mmHg 84%
    07:00 +21°C° 0 mm 4 mps 715 mmHg 82%
    08:00 +22°C° 0 mm 4 mps 715 mmHg 80%
    09:00 +23°C° 0 mm 4 mps 715 mmHg 79%
    10:00 +23°C° 0 mm 4 mps 715 mmHg 78%
    11:00 +25°C° 0 mm 4 mps 715 mmHg 77%
    12:00 +25°C° 0 mm 3 mps 715 mmHg 76%
    13:00 +26°C° 0 mm 3 mps 714 mmHg 73%
    14:00 +27°C° 0 mm 3 mps 714 mmHg 71%
    15:00 +28°C° 0 mm 3 mps 713 mmHg 68%
    16:00 +27°C° 0.2 mm 3 mps 713 mmHg 72%
    17:00 +27°C° 0.2 mm 3 mps 713 mmHg 77%
    18:00 +26°C° 0.2 mm 3 mps 712 mmHg 81%
    19:00 +25°C° 0.1 mm 3 mps 713 mmHg 84%
    20:00 +24°C° 0.1 mm 3 mps 713 mmHg 87%
    21:00 +22°C° 0.1 mm 3 mps 713 mmHg 90%
    22:00 +21°C° 0 mm 4 mps 713 mmHg 90%
    23:00 +21°C° 0 mm 4 mps 713 mmHg 91%
    Show more